Regional Weather Roundup
Issued by NWS

Home | Current Version | Previous Version | Text Only | Print | Product List | Glossary On
Versions: 1 2 3 4 5 6 7 8 9 10 11 12 13 14 15 16 17 18 19 20 21 22 23 24 25 26 27 28 29 30 31 32 33 34 35 36 37 38 39 40 41 42 43 44 45 46 47 48 49 50
000
ASUS46 KPQR 051910
RWROR

OREGON REGIONAL WEATHER ROUNDUP
NATIONAL WEATHER SERVICE PORTLAND OR
1200 PM PDT THU MAY 05 2016

NOTE: "FAIR" INDICATES FEW OR NO CLOUDS BELOW 12,000 FEET WITH
NO SIGNIFICANT WEATHER AND/OR OBSTRUCTIONS TO VISIBILITY.

ORZ001>013-052000-
NORTHWEST OREGON


CITY           SKY/WX    TMP DP  RH WIND       PRES   REMARKS
ASTORIA        MOSUNNY   59  48  67 N10       30.04S
NEWPORT        SUNNY     55  46  71 NW20G26   30.05F
PORTLAND       PTSUNNY   63  47  55 CALM      29.99F
VANCOUVER WA   CLOUDY    61  47  59 NW8       29.99S
SCAPPOOSE      MOSUNNY   64  45  49 N10       29.98F
HILLSBORO      MOSUNNY   64  47  53 E7        29.98F
AURORA         PTSUNNY   60  47  61 NE6       30.00S
MCMINNVILLE    SUNNY     64  48  56 NE8       29.99F
SALEM          CLOUDY    61  47  59 N8        29.99S
CORVALLIS        N/A     63  48  59 NW7       30.00S
EUGENE         CLOUDY    59  48  67 N9        29.99S
$$

ORZ021-028-052000-
SOUTHWEST OREGON


CITY           SKY/WX    TMP DP  RH WIND       PRES   REMARKS
NORTH BEND     CLOUDY    57  48  72 N21G26    30.04R
BROOKINGS      MOSUNNY   59  54  83 SW5       29.87F
ROSEBURG       CLOUDY    58  49  72 NW6       29.96S
SEXTON SUMMIT  FOG       47  46  97 N9        29.93F VSB<1/4
MEDFORD        CLOUDY    61  50  67 CALM      29.91S
$$

ORZ014>016-041-052000-
COLUMBIA GORGE


CITY           SKY/WX    TMP DP  RH WIND       PRES   REMARKS
TROUTDALE      CLOUDY    60  47  61 W3        29.99F
THE DALLES     CLOUDY    66  50  56 NW13      29.91F
$$

ORZ029>031-041-044-049-050-061>064-502-503-505>511-052000-
EASTERN OREGON


CITY           SKY/WX    TMP DP  RH WIND       PRES   REMARKS
REDMOND        CLOUDY    59  48  67 N3        29.93S
BEND           CLOUDY    55  48  76 N5        29.93F
PRINEVILLE     CLOUDY    61  50  67 VRB7      29.93S
KLAMATH FALLS  CLOUDY    56  46  69 NE5       29.91R
LAKEVIEW       CLOUDY    50  41  71 NE12      29.95F
HERMISTON      PTSUNNY   66  54  65 S5        29.90F
PENDLETON      PTSUNNY   64  51  62 N5        29.92S
JOHN DAY       PTSUNNY   61  49  65 W10       29.92S
MEACHAM        PTSUNNY   58  48  69 CALM      29.95S
LA GRANDE      MOSUNNY   70  45  40 N7        29.88F
BAKER CITY     MOSUNNY   67  44  43 NW10      29.89
BURNS          CLOUDY    58  45  62 W14       29.91S
ROME             N/A     70  38  31 N14       29.85F
ONTARIO        PTSUNNY   76  46  34 VRB7      29.82F
$$



USA.gov is the U.S. government's official web portal to all federal, state and local government web resources and services.